Aérodrome :
LOGIN :

S'inscrire | Disclaimer

   EN    FR    IT 

 










Légende :    VFR   VFR Marginal   IFR   IFR Intensif   IFR Très Intensif
Visi : 
Plafond : 
>= 8 km
>= 3000ft
5 à 8 km
1000 à 3000 ft
1500m à 5 km
500 à 1000 ft
800 à 1500m
200 à 500 ft
< 800m
< 200 ft
Symboles :   Orages  Brouillard  Fortes neiges  Fortes précipitations  Vent > 20 kt
SIGMETs :   Divers  Orages  Givrage  Turbulence  Onde Orograph.  Cendres Volcan.






- Altitude de l'aérodrome : 39 ft


ETNH - Hohn AB

DERNIER METAR :
  • 201020Z 15007KT 9999 FEW110 OVC160 09/04 Q1009 BLU BLU

METARs EXPIRÉS :
  • 200920Z 16005KT 9999 FEW110 BKN150 08/04 Q1010 BLU BLU
  • 200820Z 13007KT 9999 BKN110 BKN150 08/04 Q1010 BLU BLU

TAF TAF ETNH
Valide du 20 à 11h jusqu'au 20 à 23h UTC


201021Z 2011/2023 15010KT 9999 NSW BKN140
BECMG 2016/2018 19010KT 8000 NSW SCT005 BKN015
TEMPO 2016/2023 20010KT 3000 DZRA BKN005 OVC007 BY ETGL



MET'MAP, la Météo Aéronautique d'un coup d'oeil ! - Copyright ORBIFLY Décembre 2007 - Disclaimer

ORBIFLY MET'MAP TEAM :

Programmation & Développement : Alexandra Zaïnal
Sur une idée originale de : Baudouin d'Aumeries
Assistance à la programmation : Marc-Olivier Méhu
Soutien technique & logistique : Manuel Goepfert

Contact : metmap@orbifly.com




SOURCES & CREDITS :

   NOAA